Location: Aufkirchen
(47.9603°N, 11.3653°E)
Time: 13:58:35
(UTC+01:00)

Transit 2A Rocket - Pass Details

Date: 14 December 2020
Orbit: 592 x 910 km, 66.7° (Epoch: 21 January)

Event Time Altitude Azimuth Distance (km) Brightness Sun altitude
Rises 00:40:44 0° 261° (W) 3,426 - -64.5°
Reaches altitude 10° 00:43:53 10° 276° (W) 2,441 - -64.3°
Maximum altitude 00:48:07 21° 325° (NW) 1,709 - -64.1°
Drops below altitude 10° 00:52:07 10° 15° (NNE) 2,288 - -63.8°
Sets 00:54:58 0° 32° (NNE) 3,151 - -63.6°
